Theta_e
287 288 288 287 286 287 285 283 281 283 283 287 291 291 290 291 291 291 291 292 293 293 293 292 292 293 293 293 292 290 290 290 290 291 291 291 290 290 289 289 291 291 290 290
283 285 286 284 285 284 285 285 286 286 286 292 289 291 289 290 290 290 290 291 292 292 292 292 291 291 292 291 289 288 287 287 288 287 286 286 286 287 287 287 287 287 287 288
278 281 282 278 282 284 284 286 286 282 286 288 288 289 288 289 289 289 290 290 291 291 292 292 291 290 290 289 287 286 285 285 285 285 285 285 285 285 285 285 286 285 285 285
275 275 272 280 281 283 285 285 287 286 285 287 287 287 288 289 289 288 289 289 290 290 290 291 290 289 288 286 285 285 285 284 283 283 283 284 284 284 284 283 283 284 284 283
275 266 275 279 280 279 280 280 284 284 284 284 285 283 283 289 289 288 288 289 289 290 289 289 288 288 285 284 283 283 284 284 283 282 282 282 282 283 283 282 281 281 281 279
268 266 265 275 280 282 281 273 281 283 284 283 283 279 281 288 287 287 288 287 287 287 287 287 287 285 283 283 282 282 283 283 282 281 280 280 281 281 279 276 280 279 280 279
270 270 272 279 280 282 271 275 279 285 285 284 282 284 285 286 286 287 286 286 286 286 285 285 285 283 281 281 281 282 280 280 279 279 278 279 279 276 275 276 277 275 277 278
276 274 271 281 280 277 280 282 284 284 284 284 284 284 284 284 284 284 283 284 284 283 283 283 282 280 280 279 281 278 278 277 277 277 277 279 275 274 273 274 274 280 279 278
277 277 282 282 282 284 284 283 283 283 285 283 282 282 283 283 283 283 283 283 284 281 280 280 278 276 277 279 277 278 276 275 276 276 276 276 272 274 278 279 280 280 278 277
277 280 281 282 283 284 285 285 285 284 282 282 281 281 281 282 282 282 280 279 277 276 277 278 278 275 274 275 277 278 277 276 276 276 276 274 275 275 276 279 279 279 279 278
275 278 280 281 282 284 284 283 281 281 280 280 280 280 280 280 280 280 280 277 275 276 276 277 277 275 270 272 269 271 276 277 277 279 277 274 274 273 273 273 275 271 274 277
273 280 280 280 282 282 281 281 280 280 279 280 280 280 279 278 278 277 277 276 275 274 273 274 272 272 269 265 264 266 269 275 278 279 279 274 273 274 282 284 285 285 285 281
279 281 281 281 281 279 280 279 277 276 277 276 277 275 273 272 273 272 272 272 272 272 271 270 269 268 264 264 262 265 267 271 275 278 278 276 272 273 275 277 285 285 285 285
280 279 277 279 278 277 277 275 273 272 272 274 271 268 268 267 268 267 267 268 269 268 267 268 267 266 263 260 262 264 266 269 272 276 277 275 274 275 276 274 275 276 279 282
277 276 277 274 273 272 271 270 267 269 269 267 266 264 264 264 263 264 265 265 265 263 263 262 261 262 261 261 262 263 266 270 274 277 275 276 276 276 276 275 274 274 275 277
271 268 268 269 270 268 266 265 264 265 263 262 261 261 261 261 260 260 261 262 259 261 258 257 258 260 261 261 263 264 268 271 275 274 272 274 275 275 274 273 272 273 273 272
266 264 260 262 266 265 263 263 263 262 261 259 258 257 256 256 256 257 258 256 253 255 255 256 258 260 261 263 264 267 269 270 273 272 272 273 274 273 272 271 270 269 269 274
266 264 264 264 264 263 261 259 258 256 255 256 256 255 254 252 255 256 256 256 255 256 255 257 258 262 263 264 266 268 269 269 270 270 270 270 270 270 270 269 268 267 266 268
258 261 260 261 259 258 256 255 253 253 252 251 250 252 252 253 253 252 253 253 252 253 255 258 264 262 262 263 267 267 268 267 267 267 267 267 267 267 266 266 265 265 265 264
252 253 254 254 252 251 250 249 248 248 248 247 248 249 250 251 250 250 251 252 254 256 259 259 260 261 262 263 265 265 265 265 265 264 265 264 264 263 263 263 262 262 261 260
253 253 252 252 250 247 247 246 246 247 248 247 247 248 249 251 249 250 250 252 255 258 260 261 261 261 261 263 263 263 262 262 262 262 262 262 261 261 260 260 260 259 258 258
249 250 251 251 250 248 245 244 245 245 246 247 248 249 249 250 250 252 252 253 255 260 260 261 261 261 261 261 261 261 260 260 260 260 260 260 259 259 258 257 257 257 256 256
248 248 250 249 249 247 243 244 245 245 246 246 247 248 250 252 252 253 252 254 255 259 259 259 262 261 260 259 259 258 258 258 258 258 258 257 257 257 256 255 253 252 251 251
244 245 245 244 243 244 246 245 243 244 245 245 246 248 250 250 250 251 253 256 258 258 258 260 260 261 258 257 257 257 257 256 256 256 256 256 255 254 253 253 253 251 249 248
245 242 243 244 245 245 243 244 244 244 245 245 246 247 250 252 250 251 252 254 257 257 257 257 259 258 256 255 255 255 255 255 255 254 253 252 251 249 247 246 246 246 244 245
242 244 243 242 244 244 244 245 245 245 245 245 246 247 248 249 251 252 253 255 255 256 256 255 255 255 255 255 254 254 254 254 253 252 250 248 245 245 245 246 246 247 246 245
242 244 242 244 243 243 243 244 244 245 245 244 245 246 249 250 252 253 254 254 254 255 255 255 254 254 254 254 253 253 253 252 251 249 246 246 246 246 247 248 246 246 247 246
Wind_Speed
3 2 1 4 7 7 6 5 8 4 4 3 7 7 3 3 4 5 7 9 11 11 10 10 12 13 13 12 12 11 11 11 10 8 6 7 7 7 7 7 7 7 7 8
2 3 3 3 6 4 3 2 5 3 13 8 1 7 6 6 7 8 8 8 7 7 7 8 8 9 11 10 11 10 11 10 11 10 10 9 8 8 7 7 7 6 7 9
4 2 4 7 9 8 5 5 7 8 4 5 4 5 4 5 4 3 4 5 7 8 8 9 8 6 10 11 10 10 8 8 8 8 10 11 9 8 8 7 6 7 7 7
4 2 5 3 2 3 8 5 7 6 1 4 4 3 6 4 5 2 2 4 6 6 7 8 7 9 8 8 9 9 11 9 6 7 9 9 9 10 9 6 7 6 6 6
6 4 8 6 6 7 8 7 8 7 4 4 3 2 2 6 4 1 3 5 5 5 6 7 7 7 7 10 8 7 10 10 9 9 10 9 9 9 8 7 6 6 6 6
3 6 10 5 2 6 6 7 6 6 6 3 3 1 4 6 2 1 4 3 5 6 5 6 7 6 7 10 8 9 9 10 10 9 9 10 9 9 4 3 7 5 7 6
4 3 9 7 5 3 7 9 3 6 5 4 4 5 3 1 3 3 4 6 5 5 6 8 6 6 9 8 10 9 8 10 10 7 8 8 7 3 4 5 5 5 5 5
5 3 12 7 4 7 5 2 6 5 3 1 3 6 4 4 5 5 6 6 6 6 7 7 5 4 8 9 8 6 9 10 10 8 7 6 6 5 5 4 3 4 5 6
9 8 2 5 3 3 5 5 3 2 4 3 4 6 8 7 5 3 6 6 5 5 8 8 5 4 8 9 7 9 9 10 10 8 7 6 5 6 4 3 4 4 3 5
4 5 5 4 1 4 3 5 5 4 1 2 6 7 8 8 7 6 3 4 3 5 7 12 6 5 6 8 8 11 13 12 9 9 10 6 4 4 3 4 4 3 4 5
3 2 4 3 4 6 6 4 2 3 1 4 5 7 5 6 7 7 6 3 3 6 9 12 10 8 4 6 5 8 10 12 11 9 8 7 5 4 3 4 4 2 3 4
6 6 5 5 7 4 7 5 4 2 1 2 4 7 5 8 6 7 10 9 9 8 8 12 8 10 5 3 3 6 10 9 9 8 8 5 4 4 7 8 8 7 8 4
6 7 6 4 6 4 6 5 4 2 2 3 2 2 3 7 7 11 11 10 9 10 11 11 11 10 5 5 4 6 9 11 9 12 8 5 3 2 3 4 9 12 11 6
6 7 1 6 5 6 4 3 2 1 3 2 1 1 3 8 9 9 10 11 12 11 11 11 11 11 5 4 6 8 10 14 10 11 7 4 3 3 2 0 1 2 6 13
8 3 3 6 5 5 3 2 0 3 1 2 2 2 4 8 10 11 12 13 11 10 9 7 9 12 7 7 8 10 9 8 9 9 5 4 2 2 3 3 3 3 3 6
7 4 4 4 6 6 4 3 2 2 1 2 3 4 6 8 10 11 12 9 7 10 9 7 8 9 10 9 10 9 9 11 9 3 2 2 3 4 4 4 4 4 4 4
7 2 2 5 7 6 5 3 3 1 3 5 6 5 6 8 9 8 8 7 5 7 6 6 10 10 10 9 9 7 6 5 5 2 2 2 3 4 4 4 4 4 4 7
5 6 6 5 7 6 5 4 2 1 2 3 6 6 7 6 9 9 9 8 7 7 5 6 8 10 9 9 9 6 4 3 3 2 2 4 5 5 5 4 4 4 4 7
3 8 7 6 5 5 4 3 3 3 4 4 3 6 6 7 6 6 6 5 5 6 6 7 13 10 9 10 8 4 4 5 5 4 5 6 6 5 5 5 5 5 5 5
6 6 7 6 5 4 3 3 3 3 4 3 3 4 6 6 5 5 3 3 3 4 7 7 8 7 9 8 9 5 6 6 5 5 5 5 5 5 6 7 6 6 5 5
8 7 7 7 5 3 4 3 2 1 4 2 2 4 4 5 4 3 3 2 6 6 7 8 6 7 6 7 7 5 7 6 6 6 5 5 5 5 6 5 5 4 4 3
5 6 6 6 6 3 2 2 3 1 0 2 3 3 2 4 4 3 1 1 4 7 5 5 5 10 8 10 6 7 7 7 6 5 5 5 4 4 4 4 4 3 3 3
6 5 6 6 5 4 2 1 2 3 2 2 1 2 0 1 2 2 3 5 3 5 4 5 8 11 11 6 6 6 6 6 6 5 4 4 4 3 2 2 2 2 2 2
4 4 4 4 5 4 3 2 1 1 2 1 1 1 1 1 3 2 3 5 6 5 4 5 7 11 9 5 4 5 5 5 4 4 4 4 3 3 3 3 3 3 2 3
5 5 4 5 5 3 3 2 3 2 2 2 2 2 3 1 2 3 3 3 6 5 3 6 8 9 4 4 4 4 4 3 3 2 3 3 3 3 3 3 3 3 3 3
4 3 3 3 3 3 3 3 3 1 2 1 2 2 3 2 2 3 3 5 4 6 4 4 4 4 3 4 4 4 3 3 3 3 3 2 3 3 4 4 4 4 4 4
5 4 3 2 2 1 2 3 2 1 1 1 2 3 2 2 3 3 5 4 4 5 4 4 4 4 4 4 4 3 4 3 4 3 3 4 3 4 5 5 5 5 5 5
Wind_Direction
64 41 46 157 161 178 187 181 183 148 201 210 292 326 57 78 61 52 34 21 12 1 353 349 349 347 349 350 352 353 346 344 336 324 315 308 301 292 282 269 261 250 247 241
139 351 349 295 243 197 197 206 266 270 273 198 96 105 49 40 46 31 8 355 351 342 338 338 335 334 335 336 338 342 338 331 328 331 328 326 319 311 298 285 274 265 257 250
187 339 82 310 239 185 183 200 164 210 237 139 132 136 150 151 110 57 348 334 333 329 323 321 322 324 322 322 327 326 321 317 323 327 326 323 318 312 304 296 284 276 266 255
128 92 207 230 5 76 204 218 227 265 238 142 161 196 232 193 148 65 339 337 327 314 315 319 311 315 316 322 318 319 318 315 311 315 314 315 315 310 305 295 290 279 269 255
152 189 311 280 187 178 166 259 212 222 208 148 141 166 283 178 149 42 346 320 296 303 292 293 299 306 312 311 306 311 311 316 320 317 310 310 308 310 307 297 298 288 280 276
125 146 205 246 306 130 106 274 209 178 160 168 84 8 241 176 152 294 279 281 293 307 287 294 306 317 316 310 311 310 314 311 305 304 301 306 304 305 287 271 285 295 298 278
171 206 283 213 216 156 114 245 187 142 158 175 198 197 160 149 248 241 245 288 294 299 299 296 305 316 309 307 300 297 306 304 298 287 288 282 290 271 280 295 298 299 297 290
141 154 260 155 55 178 196 69 156 184 180 246 320 322 293 248 249 276 288 296 292 293 292 290 283 286 291 288 283 299 302 301 297 293 294 294 291 287 287 299 284 304 311 308
180 204 72 185 172 176 140 145 175 133 112 59 321 293 294 282 283 249 274 279 276 274 285 294 278 231 285 288 314 308 307 300 299 297 292 289 295 296 298 296 297 306 291 300
103 222 162 163 145 144 115 120 132 120 169 239 260 271 278 297 305 307 287 262 249 282 290 297 294 245 244 290 302 303 301 302 303 304 309 304 294 285 296 298 296 290 297 298
249 167 110 174 199 150 148 135 38 349 0 294 300 297 284 293 299 305 301 311 291 290 291 293 301 297 285 305 316 300 295 296 297 294 296 294 280 268 265 260 231 246 271 283
214 179 157 162 176 161 163 184 180 153 326 351 318 291 315 303 316 312 313 317 308 297 289 295 297 299 299 293 303 306 302 295 292 289 287 274 280 298 292 290 298 285 292 267
187 181 169 133 130 141 156 151 140 177 177 272 267 14 338 303 308 309 304 306 298 307 302 298 296 293 295 299 290 286 281 288 289 285 274 261 257 258 298 335 70 58 40 346
132 119 174 169 206 149 136 133 97 284 239 215 111 121 290 295 301 301 302 304 302 301 297 292 293 297 289 305 299 288 281 280 275 274 260 235 216 231 212 27 345 348 360 28
183 175 130 103 119 136 112 110 206 283 2 338 74 300 301 308 304 304 305 300 300 294 291 319 312 305 310 306 298 289 284 280 276 270 241 216 188 136 101 73 51 17 346 8
133 121 115 180 179 157 146 137 204 254 301 283 304 310 312 302 296 297 297 305 312 311 312 312 303 298 306 300 294 289 281 278 282 260 217 149 129 119 103 93 71 50 36 6
121 234 184 232 197 173 194 162 175 235 309 304 298 303 304 300 298 295 300 304 283 288 288 296 303 302 295 295 292 288 289 298 318 333 31 60 86 91 94 90 85 68 35 47
114 105 113 136 160 162 165 159 159 261 252 280 302 306 301 298 292 300 301 309 312 311 294 304 305 305 316 314 309 304 305 338 357 4 39 61 67 72 76 81 74 76 52 44
103 130 120 116 115 124 144 185 204 223 262 265 296 287 277 277 278 280 302 324 339 325 309 319 323 332 326 326 339 331 3 31 22 18 37 54 62 58 65 68 67 60 53 51
113 94 103 111 99 121 170 216 209 256 271 296 292 300 298 291 287 291 300 290 278 281 307 318 334 335 336 343 356 360 41 33 40 36 37 48 55 61 62 57 58 53 51 50
134 130 132 138 139 152 185 194 171 288 296 305 246 274 270 296 312 306 8 354 314 322 332 343 356 355 351 360 10 15 46 43 43 43 37 43 55 56 60 60 59 55 51 56
125 131 146 142 132 135 200 204 186 204 206 1 349 358 12 336 335 322 263 261 303 339 349 343 7 17 17 12 11 25 38 40 37 37 39 40 45 49 46 47 47 46 37 32
135 149 132 126 146 170 151 131 117 130 121 88 53 353 18 249 297 356 312 322 319 342 354 3 1 28 24 23 17 20 26 34 38 36 36 34 36 33 37 35 36 28 13 347
118 103 114 116 117 97 126 274 99 130 158 141 101 332 37 27 314 318 303 315 322 351 352 354 3 20 23 19 9 12 19 18 23 18 7 4 11 355 347 340 329 326 318 311
106 108 112 123 129 176 185 205 104 67 67 34 353 346 348 334 177 288 306 299 325 341 342 356 6 9 10 2 355 353 352 352 348 349 345 334 325 316 296 287 278 278 268 257
112 133 136 177 168 171 183 150 147 193 116 347 311 331 328 324 313 320 309 319 324 332 333 344 348 344 340 332 330 331 321 323 326 311 302 279 276 275 270 272 268 263 262 267
82 106 100 62 16 159 150 142 126 168 86 158 248 282 307 318 316 321 321 317 319 320 315 317 315 318 313 310 306 300 297 295 296 282 264 269 263 263 270 268 265 267 267 259